Showing default

QIANFAN-117, 68644

Orbit data source: Space-Track

QIANFAN-117, 68644 is a Chinese payload satellite in LEO that was launched on Tue, 07 Apr 2026 UTC via a CHANG ZHENG 8 launch vehicle from the Wenchang Satellite Launch Center (WSC). Payload-class satellites include a variety of spacecraft equipped with specific instruments for various scientific and technological missions. These include communications satellites like Starlink; space stations such as the ISS; scientific satellites like the Hubble; Earth observation satellites from companies like Planet Labs, Umbra, and HawkEye 360; GPS; miniature CubeSats for education and research; and military/defense satellites.

Loading next visibility...
Identifier
68644, 2026-075J
Orbit
LEO
Country
Flag of CNCN / PRC
Related business
Manufacturer
SECM
Mission
Operational spacecraft
Bus & Motor
QIANFAN, Unknown motor
Mass
267 kg wet, ~267 kg dry
Launch date (UTC)
2026-04-07 (2 months ago)
Launch vehicle
CHANG ZHENG 8
Launch site
Wenchang Satellite Launch Center (WSC)
Object type
Payload
Rocket body
Debris
Shape & HBR
Unknown shape, 14.5 m
Radar Cross Section
Large (>1 m²)

Expand to show TLE details & history
Last TLE update: 10 hours ago

TLE from 10 hours ago
0 QIANFAN-117
1 68644U 26075J   26171.41841106  .00000068  00000-0  86407-4 0  9993
2 68644  88.9891 320.6668 0001776  99.5920 260.5432 13.51020854 10247
Epoch: 2026-06-20T10:02Z
TLE epoch observation values (Epoch: 2026-06-20T10:02:30.715Z)
Latitude
-0.00002°
Longitude
-98.5945°
Altitude
1,071.676 km
Speed
7.316 km/s
True Right ascension
21h 22m 40s
True Declination
0° 00' 00"
Sunlit
Object was in full shadow at epoch
Visualization orbit readout
Latitude
Unknown
Longitude
Unknown
Altitude
Unknown
Speed
Unknown
Apparent Right ascension
Unknown
Apparent Declination
Unknown
Sunlit
N/A
Visualization observer readout
Local Sidereal Time
07:13:17
Azimuth
Unknown
Elevation
Unknown
Doppler factor
Unknown
Orbital elements
Apogee altitude
1,066.878 km
Perigee altitude
1,064.234 km
Semi-major axis
7,443.693 km
Eccentricity
0.00018
Inclination
88.9891°
RAAN
320.6668°
Arg. of periapsis
99.592°
True anomaly
260.52313°
Mean anomaly
260.5432°
Eccentric anomaly
260.53316°
Mean motion
3.37956 °/min
Orbital period
106.52 mins
BSTAR
0.000086407
Loading maneuver chart data...
Computing Atmospheric mass density...
Loading historical data...
Loading historical data...
Loading historical data...
Loading historical data...
Loading historical data...
Loading historical data...
Loading historical data...

Documentation

Showing up to 5 results
|